User: anonymous   Login
Location: Koslow
(50.3020°N, 18.5663°E)
Time: 16:47:56
(UTC+00:00)
Language:

Spot 4 Rocket - Orbit

View from above orbital plane
View from above orbital plane
View from above satellite
View from above satellite

Ground track
Ground track

The orbit data is extracted from the following two-line orbital elements,

1 25261U 98017B   20227.85773276  .00000054  00000-0  35537-4 0  9995
2 25261  98.6925 185.6809 0002313 292.2913  67.8026 14.33835582170460
Epoch (UTC): 14 August 2020 20:35:08
Eccentricity: 0.0002313
inclination: 98.6925°
perigee height: 777 km
apogee height: 780 km
right ascension of ascending node: 185.6809°
argument of perigee: 292.2913°
revolutions per day: 14.33835582
mean anomaly at epoch: 67.8026°
orbit number at epoch: 17046

The dashed part of the orbit path shows where the satellite is in the earth's shadow,  

DLR